Weather History for KMTO - March, 2014

Change the Weather History Date:

Tuesday, March 25, 2014

  Actual Average Record
Temperature  
Mean Temperature 27 °F 46 °F  
Max Temperature 36 °F 56 °F 80 °F (2007)
Min Temperature 18 °F 36 °F 4 °F (1974)
Degree Days  
Heating Degree Days 38 19  
Month to date heating degree days 752 590  
Since 1 July heating degree days 5599 4794  
Cooling Degree Days 0 0  
Month to date cooling degree days 0 0  
Year to date cooling degree days 0 0  
Moisture  
Dew Point 20 °F    
Average Humidity 58    
Maximum Humidity 77    
Minimum Humidity 38    
Precipitation  
Precipitation T in 0.10 in 1.04 in (1973)
Month to date precipitation 0.79 1.92  
Year to date precipitation 2.72 5.90  
Sea Level Pressure  
Sea Level Pressure 30.14 in    
Wind  
Wind Speed 17 mph (WNW)    
Max Wind Speed 33 mph    
Max Gust Speed 41 mph    
Visibility 7 miles    
Events Snow    
T = Trace of Precipitation, MM = Missing Value Source: NWS Daily Summary

Daily Weather History Graph

Daily Weather History Graph

Search for Another Location

Airport or City:

Trip Planner

Search our weather history database for the weather conditions in past years. The results will help you decide how hot, cold, wet, or windy it might be!

Date:

Astronomy

Mar. 25, 2014 Rise Set
Actual Time 6:48 AM CDT 7:10 PM CDT
Civil Twilight 6:21 AM CDT 7:37 PM CDT
Nautical Twilight 5:50 AM CDT 8:08 PM CDT
Astronomical Twilight 5:17 AM CDT 8:41 PM CDT
Moon 3:08 AM CDT (3/25) 1:41 PM CDT (3/25)
Length of Visible Light 13h 15m
Length of Day
12h 21m
Waning Crescent, 32% of the Moon is Illuminated
Mar 25
Waning Crescent
Mar 30
New
Apr 7
First Quarter
Apr 15
Full
Apr 22
Last Quarter

Hourly Weather History & Observations

Time (CDT) Temp. Windchill Dew Point Humidity Pressure Visibility Wind Dir Wind Speed Gust Speed Precip Events Conditions
12:53 AM 30.0 °F - 19.9 °F 66% 30.13 in 10.0 mi Calm Calm - N/A   Overcast
1:53 AM 30.0 °F 26.5 °F 19.9 °F 66% 30.11 in 10.0 mi SSW 3.5 mph - N/A   Overcast
2:53 AM 30.0 °F 24.1 °F 18.0 °F 61% 30.09 in 10.0 mi SW 5.8 mph - N/A   Overcast
3:53 AM 30.0 °F 18.3 °F 25.0 °F 82% 30.07 in 6.0 mi West 17.3 mph 21.9 mph 0.00 in Snow Light Snow
3:59 AM 30.0 °F 20.5 °F 27.0 °F 88% 30.05 in 1.8 mi West 11.5 mph - 0.00 in Snow Light Snow
4:19 AM 30.0 °F 21.7 °F 28.0 °F 92% 30.04 in 2.5 mi West 9.2 mph - 0.00 in Snow Light Snow
4:34 AM 28.9 °F 21.9 °F 28.0 °F 96% 30.04 in 4.0 mi West 6.9 mph - 0.00 in   Overcast
4:44 AM 30.0 °F 22.4 °F 28.0 °F 92% 30.04 in 5.0 mi West 8.1 mph - 0.00 in   Overcast
4:53 AM 30.0 °F 22.4 °F 28.0 °F 92% 30.06 in 3.0 mi West 8.1 mph - 0.00 in Snow Light Snow
4:56 AM 30.0 °F 22.4 °F 28.0 °F 92% 30.04 in 2.5 mi West 8.1 mph - 0.00 in Snow Light Snow
5:09 AM 30.0 °F 21.7 °F 28.0 °F 92% 30.03 in 4.0 mi West 9.2 mph - 0.00 in Snow Light Snow
5:25 AM 30.0 °F 21.7 °F 28.0 °F 92% 30.03 in 5.0 mi West 9.2 mph - 0.00 in   Overcast
5:53 AM 30.0 °F 19.5 °F 28.0 °F 92% 30.06 in 4.0 mi WNW 13.8 mph - 0.00 in Snow Light Snow
6:02 AM 30.0 °F 19.5 °F 28.0 °F 92% 30.04 in 1.8 mi WNW 13.8 mph - 0.00 in Snow Light Snow
6:05 AM 30.0 °F 17.9 °F 28.0 °F 92% 30.04 in 2.0 mi WNW 18.4 mph - 0.00 in Snow Light Snow
6:09 AM 30.0 °F 17.9 °F 28.0 °F 92% 30.04 in 3.0 mi WNW 18.4 mph 25.3 mph 0.00 in Snow Light Snow
6:33 AM 28.0 °F 16.1 °F 24.1 °F 85% 30.06 in 10.0 mi NW 16.1 mph - 0.00 in   Overcast
6:53 AM 27.0 °F 13.2 °F 24.1 °F 89% 30.09 in 10.0 mi NW 20.7 mph - 0.00 in   Overcast
7:53 AM 26.1 °F 12.0 °F 17.1 °F 69% 30.12 in 10.0 mi NW 20.7 mph 31.1 mph N/A   Clear
8:53 AM 27.0 °F 12.5 °F 14.0 °F 58% 30.14 in 10.0 mi NW 23.0 mph 35.7 mph N/A   Clear
9:53 AM 30.0 °F 17.2 °F 12.9 °F 49% 30.17 in 10.0 mi NW 20.7 mph 28.8 mph N/A   Clear
10:53 AM 33.1 °F 19.6 °F 10.9 °F 40% 30.18 in 10.0 mi NW 27.6 mph 33.4 mph N/A   Clear
11:48 AM 28.4 °F 13.3 °F 17.6 °F 64% 30.18 in 1.5 mi NW 27.6 mph 41.4 mph 0.00 in Snow Light Snow
11:53 AM 27.0 °F 13.2 °F 21.9 °F 81% 30.20 in 0.5 mi NW 20.7 mph 39.1 mph 0.00 in Snow Snow
11:57 AM 28.9 °F 16.5 °F 23.0 °F 78% 30.17 in 0.8 mi WNW 18.4 mph 31.1 mph 0.00 in Snow Light Snow
12:00 PM 28.9 °F 17.3 °F 21.9 °F 75% 30.17 in 1.2 mi WNW 16.1 mph - 0.00 in Snow Light Snow
12:02 PM 30.0 °F 17.9 °F 21.0 °F 69% 30.17 in 4.0 mi WNW 18.4 mph - 0.00 in Snow Light Snow
12:53 PM 30.9 °F 16.4 °F 12.0 °F 46% 30.20 in 10.0 mi NW 28.8 mph 36.8 mph 0.00 in   Mostly Cloudy
1:53 PM 34.0 °F 21.5 °F 12.0 °F 40% 30.20 in 10.0 mi WNW 24.2 mph 35.7 mph N/A   Overcast
2:53 PM 33.1 °F 19.8 °F 10.0 °F 38% 30.20 in 10.0 mi NW 26.5 mph 32.2 mph N/A   Overcast
3:53 PM 33.1 °F 19.8 °F 10.0 °F 38% 30.21 in 10.0 mi NW 26.5 mph 35.7 mph N/A   Mostly Cloudy
4:53 PM 34.0 °F 22.1 °F 10.9 °F 38% 30.21 in 10.0 mi NW 21.9 mph 28.8 mph N/A   Mostly Cloudy
5:53 PM 30.9 °F 19.1 °F 9.0 °F 40% 30.22 in 10.0 mi NW 18.4 mph - N/A   Scattered Clouds
6:53 PM 28.9 °F 16.5 °F 10.0 °F 45% 30.24 in 10.0 mi NW 18.4 mph - N/A   Mostly Cloudy
7:53 PM 26.1 °F 15.0 °F 10.9 °F 53% 30.26 in 10.0 mi NW 12.7 mph - N/A   Mostly Cloudy
8:53 PM 23.0 °F 13.1 °F 12.0 °F 63% 30.27 in 10.0 mi NW 9.2 mph - N/A   Clear
9:53 PM 23.0 °F 12.4 °F 12.0 °F 63% 30.29 in 10.0 mi NW 10.4 mph - N/A   Clear
10:53 PM 21.9 °F 11.7 °F 14.0 °F 72% 30.30 in 10.0 mi NW 9.2 mph - N/A   Clear
11:53 PM 19.9 °F 12.1 °F 14.0 °F 78% 30.30 in 10.0 mi NNW 5.8 mph - N/A   Clear